Time,TemperatureF,DewpointF,PressureIn,WindDirection,WindDirectionDegrees,WindSpeedMPH,WindSpeedGustMPH,Humidity,HourlyPrecipIn,Conditions,Clouds,dailyrainin,SoftwareType,DateUTC
2013-05-28 00:09:00,62.2,61.7,29.90,ENE,65,5.4,10.7,98,0.20,,OVC002,0.00,VWS V14.00,2013-05-28 05:09:00,
2013-05-28 00:19:00,62.2,61.7,29.90,SSE,156,6.3,12.5,98,0.20,,OVC002,0.00,VWS V14.00,2013-05-28 05:19:00,
2013-05-28 00:28:00,62.2,61.7,29.90,SE,143,5.4,11.6,98,0.20,,OVC002,0.00,VWS V14.00,2013-05-28 05:28:00,
2013-05-28 00:38:00,62.2,61.7,29.90,ENE,62,4.5,8.1,98,0.04,,,0.04,VWS V14.00,2013-05-28 05:38:00,
2013-05-28 00:48:00,62.2,61.7,29.90,ENE,62,5.4,7.2,98,0.04,,,0.04,VWS V14.00,2013-05-28 05:48:00,
2013-05-28 01:00:00,62.2,61.7,29.87,ENE,74,6.3,8.1,98,0.04,,,0.04,VWS V14.00,2013-05-28 06:00:00,
2013-05-28 01:09:00,62.2,61.7,29.87,ENE,66,0.0,8.1,98,0.04,,,0.04,VWS V14.00,2013-05-28 06:09:00,
2013-05-28 01:20:00,62.2,61.7,29.87,East,81,0.0,7.2,98,0.04,,,0.04,VWS V14.00,2013-05-28 06:20:00,
2013-05-28 01:29:00,62.2,61.7,29.87,ESE,117,5.4,7.2,98,0.04,,,0.04,VWS V14.00,2013-05-28 06:29:00,
2013-05-28 01:39:00,62.2,61.7,29.87,East,91,4.5,9.8,98,0.04,,OVC004,0.04,VWS V14.00,2013-05-28 06:39:00,
2013-05-28 01:49:00,62.2,61.7,29.87,ENE,76,0.0,8.1,98,0.04,,OVC002,0.04,VWS V14.00,2013-05-28 06:49:00,
2013-05-28 01:59:00,62.2,61.7,29.87,East,91,4.5,7.2,98,0.04,,OVC002,0.04,VWS V14.00,2013-05-28 06:59:00,
2013-05-28 02:09:00,62.2,61.7,29.87,ENE,76,6.3,8.1,98,0.04,,,0.04,VWS V14.00,2013-05-28 07:09:00,
2013-05-28 02:19:00,62.2,61.7,29.87,ENE,72,5.4,8.1,98,0.04,,,0.04,VWS V14.00,2013-05-28 07:19:00,
2013-05-28 02:29:00,62.2,61.7,29.84,East,84,7.2,10.7,98,0.04,,,0.04,VWS V14.00,2013-05-28 07:29:00,
2013-05-28 02:39:00,62.2,61.7,29.84,SSE,157,0.0,10.7,98,0.04,,,0.04,VWS V14.00,2013-05-28 07:39:00,
2013-05-28 02:49:00,62.2,61.7,29.84,ESE,122,5.4,9.8,98,0.00,,,0.04,VWS V14.00,2013-05-28 07:49:00,
2013-05-28 02:59:00,62.2,61.7,29.84,SE,140,4.5,8.1,98,0.00,,,0.04,VWS V14.00,2013-05-28 07:59:00,
2013-05-28 03:09:00,62.2,61.7,29.84,ESE,103,0.0,8.1,98,0.00,,,0.04,VWS V14.00,2013-05-28 08:09:00,
2013-05-28 03:19:00,62.2,61.7,29.81,SE,141,6.3,7.2,98,0.00,,,0.04,VWS V14.00,2013-05-28 08:19:00,
2013-05-28 03:29:00,62.2,61.7,29.81,East,79,0.0,7.2,98,0.00,,,0.04,VWS V14.00,2013-05-28 08:29:00,
2013-05-28 03:39:00,62.2,61.7,29.81,SE,129,0.0,5.4,98,0.00,,,0.04,VWS V14.00,2013-05-28 08:39:00,
2013-05-28 03:49:00,62.2,61.7,29.81,SE,133,0.0,0.0,98,0.00,,,0.04,VWS V14.00,2013-05-28 08:49:00,
2013-05-28 03:59:00,62.2,61.7,29.81,SSE,148,0.0,8.1,98,0.00,,,0.04,VWS V14.00,2013-05-28 08:59:00,
2013-05-28 04:09:00,62.2,61.7,29.81,SE,135,0.0,8.1,98,0.00,,,0.04,VWS V14.00,2013-05-28 09:09:00,
2013-05-28 04:19:00,62.2,61.7,29.81,South,172,0.0,8.1,98,0.00,,,0.04,VWS V14.00,2013-05-28 09:19:00,
2013-05-28 04:29:00,62.2,61.7,29.81,East,87,4.5,6.3,98,0.00,,,0.04,VWS V14.00,2013-05-28 09:29:00,
2013-05-28 04:39:00,62.2,61.7,29.81,East,91,0.0,7.2,98,0.00,,,0.08,VWS V14.00,2013-05-28 09:39:00,
2013-05-28 04:48:00,62.2,61.7,29.81,South,185,0.0,8.1,98,0.00,,,0.08,VWS V14.00,2013-05-28 09:48:00,
2013-05-28 05:00:00,62.2,61.7,29.81,ESE,121,0.0,8.1,98,0.00,,,0.08,VWS V14.00,2013-05-28 10:00:00,
2013-05-28 05:09:00,62.2,61.7,29.81,SE,143,8.1,8.1,98,0.00,,,0.08,VWS V14.00,2013-05-28 10:09:00,
2013-05-28 05:19:00,62.2,61.7,29.81,SSW,199,5.4,13.4,98,0.00,,,0.08,VWS V14.00,2013-05-28 10:19:00,
2013-05-28 05:29:00,62.2,61.7,29.84,SSE,155,12.5,16.1,98,0.00,,,0.08,VWS V14.00,2013-05-28 10:29:00,
2013-05-28 05:39:00,62.2,61.7,29.84,SSW,207,5.4,15.2,98,0.00,,,0.08,VWS V14.00,2013-05-28 10:39:00,
2013-05-28 05:49:00,62.2,61.7,29.81,SSW,203,5.4,11.6,98,0.00,,,0.08,VWS V14.00,2013-05-28 10:49:00,
2013-05-28 05:59:00,62.2,61.7,29.81,South,172,8.1,12.5,98,0.00,,,0.08,VWS V14.00,2013-05-28 10:59:00,
2013-05-28 06:09:00,62.2,61.7,29.81,South,176,11.6,11.6,98,0.00,,,0.08,VWS V14.00,2013-05-28 11:09:00,
2013-05-28 06:19:00,62.2,61.7,29.81,South,176,5.4,12.5,98,0.00,,,0.08,VWS V14.00,2013-05-28 11:19:00,
2013-05-28 06:29:00,62.6,62.0,29.84,SSW,202,5.4,12.5,98,0.00,,,0.08,VWS V14.00,2013-05-28 11:29:00,
2013-05-28 06:39:00,62.6,62.0,29.84,SSW,198,10.7,12.5,98,0.00,,,0.08,VWS V14.00,2013-05-28 11:39:00,
2013-05-28 06:49:00,62.6,62.0,29.84,South,190,7.2,10.7,98,0.00,,,0.08,VWS V14.00,2013-05-28 11:49:00,
2013-05-28 06:59:00,62.6,62.0,29.81,SSW,193,4.5,11.6,98,0.00,,,0.08,VWS V14.00,2013-05-28 11:59:00,
2013-05-28 07:09:00,62.6,62.0,29.81,SSW,200,12.5,15.2,98,0.00,,,0.08,VWS V14.00,2013-05-28 12:09:00,
2013-05-28 07:19:00,62.6,62.0,29.81,SE,137,5.4,16.6,98,0.00,,,0.08,VWS V14.00,2013-05-28 12:19:00,
2013-05-28 07:29:00,62.6,62.0,29.78,SW,220,7.2,10.7,98,0.00,,,0.08,VWS V14.00,2013-05-28 12:29:00,
2013-05-28 07:39:00,62.6,62.0,29.78,South,185,8.1,20.1,98,0.00,,,0.08,VWS V14.00,2013-05-28 12:39:00,
2013-05-28 07:50:00,62.6,62.0,29.78,South,178,10.7,12.5,98,0.00,,-RA,0.08,VWS V14.00,2013-05-28 12:50:00,
2013-05-28 08:00:00,62.6,62.0,29.75,WSW,240,11.6,23.7,98,0.00,,-RA,0.08,VWS V14.00,2013-05-28 13:00:00,
2013-05-28 08:10:00,62.6,62.0,29.75,SSW,204,9.8,19.2,98,0.00,,SCT100,0.08,VWS V14.00,2013-05-28 13:10:00,
2013-05-28 08:19:00,62.6,62.0,29.78,SW,218,7.2,17.4,98,0.00,,SCT100,0.08,VWS V14.00,2013-05-28 13:19:00,
2013-05-28 08:29:00,62.6,62.0,29.78,SSE,147,8.1,15.2,98,0.00,,SCT100,0.08,VWS V14.00,2013-05-28 13:29:00,
2013-05-28 08:39:00,62.6,62.0,29.78,South,177,8.9,21.9,98,0.00,,CLR,0.08,VWS V14.00,2013-05-28 13:39:00,
2013-05-28 08:49:00,62.6,62.0,29.78,SSW,207,6.3,20.1,98,0.00,,CLR,0.08,VWS V14.00,2013-05-28 13:49:00,
2013-05-28 08:59:00,62.6,62.0,29.81,SW,231,6.3,11.6,98,0.00,,CLR,0.08,VWS V14.00,2013-05-28 13:59:00,
2013-05-28 09:09:00,62.6,62.0,29.81,SW,235,6.3,15.2,98,0.00,,CLR,0.08,VWS V14.00,2013-05-28 14:09:00,
2013-05-28 09:19:00,67.5,66.3,29.81,SW,219,6.3,9.8,96,0.00,,CLR,0.08,VWS V14.00,2013-05-28 14:19:00,
2013-05-28 09:29:00,67.5,66.3,29.81,SSW,200,0.0,10.7,96,0.00,,CLR,0.08,VWS V14.00,2013-05-28 14:29:00,
2013-05-28 09:39:00,67.5,66.3,29.81,SSW,205,6.3,14.3,96,0.00,,CLR,0.08,VWS V14.00,2013-05-28 14:39:00,
2013-05-28 09:49:00,67.5,66.3,29.81,SW,217,5.4,11.6,96,0.00,,CLR,0.08,VWS V14.00,2013-05-28 14:49:00,
2013-05-28 09:59:00,67.5,66.3,29.81,WSW,245,7.2,9.8,96,0.00,,BKN029,0.08,VWS V14.00,2013-05-28 14:59:00,
2013-05-28 10:09:00,67.5,66.3,29.81,SW,220,6.3,7.2,96,0.00,,BKN029,0.08,VWS V14.00,2013-05-28 15:09:00,
2013-05-28 10:19:00,67.5,66.3,29.81,SW,236,0.0,6.3,96,0.00,,BKN029,0.08,VWS V14.00,2013-05-28 15:19:00,
2013-05-28 10:29:00,67.5,66.3,29.81,SW,235,4.5,8.1,96,0.00,,BKN029,0.08,VWS V14.00,2013-05-28 15:29:00,
2013-05-28 10:39:00,67.5,66.3,29.81,WSW,237,0.0,8.1,96,0.00,,OVC026,0.08,VWS V14.00,2013-05-28 15:39:00,
2013-05-28 10:50:00,67.5,66.3,29.81,WSW,247,4.5,8.1,96,0.00,,OVC025,0.08,VWS V14.00,2013-05-28 15:50:00,
2013-05-28 11:00:00,67.5,66.3,29.81,WSW,241,4.5,8.1,96,0.00,,OVC025,0.08,VWS V14.00,2013-05-28 16:00:00,
2013-05-28 11:09:00,67.5,66.3,29.81,SW,231,6.3,7.2,96,0.00,,BKN100,0.08,VWS V14.00,2013-05-28 16:09:00,
2013-05-28 11:19:00,67.5,66.3,29.81,WSW,242,5.4,11.6,96,0.00,,BKN100,0.08,VWS V14.00,2013-05-28 16:19:00,
2013-05-28 11:30:00,67.5,66.3,29.81,West,263,8.1,12.5,96,0.00,,BKN024,0.08,VWS V14.00,2013-05-28 16:30:00,
2013-05-28 11:39:00,67.5,66.3,29.81,SW,233,5.4,16.6,96,0.00,,BKN024,0.08,VWS V14.00,2013-05-28 16:39:00,
2013-05-28 11:49:00,71.8,68.0,29.81,SW,218,5.4,12.5,88,0.00,,SCT050,0.08,VWS V14.00,2013-05-28 16:49:00,
2013-05-28 11:59:00,71.8,68.0,29.81,SSW,201,6.3,12.5,88,0.00,,SCT050,0.08,VWS V14.00,2013-05-28 16:59:00,
2013-05-28 12:09:00,71.8,68.0,29.81,SSE,162,8.1,16.1,88,0.00,,BKN049,0.08,VWS V14.00,2013-05-28 17:09:00,
2013-05-28 12:19:00,71.8,68.0,29.81,SSW,193,5.4,10.7,88,0.00,,BKN049,0.08,VWS V14.00,2013-05-28 17:19:00,
2013-05-28 12:29:00,71.8,68.0,29.81,SW,216,0.0,8.1,88,0.00,,BKN049,0.08,VWS V14.00,2013-05-28 17:29:00,
2013-05-28 12:39:00,71.8,68.0,29.81,SSW,208,5.4,7.2,88,0.00,,OVC021,0.08,VWS V14.00,2013-05-28 17:39:00,
2013-05-28 12:49:00,71.8,68.0,29.81,South,185,4.5,10.7,88,0.00,,BKN021,0.08,VWS V14.00,2013-05-28 17:49:00,
2013-05-28 12:59:00,71.8,68.0,29.81,SW,217,5.4,8.1,88,0.00,,BKN021,0.08,VWS V14.00,2013-05-28 17:59:00,
2013-05-28 13:09:00,71.8,68.0,29.81,South,182,0.0,10.7,88,0.00,,BKN021,0.08,VWS V14.00,2013-05-28 18:09:00,
2013-05-28 13:19:00,71.8,68.0,29.81,SSW,198,5.4,8.1,88,0.00,,BKN021,0.08,VWS V14.00,2013-05-28 18:19:00,
2013-05-28 13:29:00,71.8,68.0,29.81,SSW,193,8.1,8.1,88,0.00,,OVC021,0.08,VWS V14.00,2013-05-28 18:29:00,
2013-05-28 13:39:00,71.8,68.0,29.81,SW,217,8.1,8.1,88,0.00,,OVC021,0.08,VWS V14.00,2013-05-28 18:39:00,
2013-05-28 13:50:00,71.8,68.0,29.81,SW,214,5.4,10.7,88,0.00,,OVC021,0.08,VWS V14.00,2013-05-28 18:50:00,
2013-05-28 14:00:00,71.8,68.0,29.81,SW,224,8.1,8.1,88,0.00,,OVC021,0.08,VWS V14.00,2013-05-28 19:00:00,
2013-05-28 14:10:00,71.8,68.0,29.81,SW,234,6.3,11.6,88,0.00,,OVC023,0.08,VWS V14.00,2013-05-28 19:10:00,
2013-05-28 14:20:00,71.8,68.0,29.81,SSW,204,7.2,10.7,88,0.00,,OVC023,0.08,VWS V14.00,2013-05-28 19:20:00,
2013-05-28 14:29:00,71.8,68.0,29.81,SSW,201,12.5,14.3,88,0.00,,OVC023,0.08,VWS V14.00,2013-05-28 19:29:00,
2013-05-28 14:39:00,71.8,68.0,29.81,SSW,197,8.1,21.9,88,0.00,,OVC020,0.08,VWS V14.00,2013-05-28 19:39:00,
2013-05-28 14:49:00,71.8,68.0,29.81,SSW,193,5.4,16.6,88,0.00,,OVC024,0.08,VWS V14.00,2013-05-28 19:49:00,
2013-05-28 14:59:00,71.8,68.0,29.81,SSW,195,7.2,16.6,88,0.00,,OVC024,0.08,VWS V14.00,2013-05-28 19:59:00,
2013-05-28 15:09:00,71.8,68.0,29.81,SSE,163,8.1,12.5,88,0.00,,OVC025,0.08,VWS V14.00,2013-05-28 20:09:00,
2013-05-28 15:19:00,71.8,68.0,29.81,East,92,8.1,16.6,88,0.00,,OVC025,0.08,VWS V14.00,2013-05-28 20:19:00,
2013-05-28 15:29:00,71.8,68.0,29.81,SSW,213,7.2,12.5,88,0.00,,OVC025,0.08,VWS V14.00,2013-05-28 20:29:00,
2013-05-28 15:39:00,71.8,68.0,29.81,SSW,202,8.1,12.5,88,0.00,,BKN120,0.08,VWS V14.00,2013-05-28 20:39:00,
2013-05-28 15:49:00,71.8,68.0,29.81,SSW,195,6.3,12.5,88,0.00,,OVC024,0.08,VWS V14.00,2013-05-28 20:49:00,
2013-05-28 15:59:00,71.8,68.0,29.81,South,189,4.5,9.8,88,0.00,, +RA,0.08,VWS V14.00,2013-05-28 20:59:00,
2013-05-28 16:09:00,71.8,68.0,29.81,SSW,192,16.1,16.1,88,0.00,, +RA,0.08,VWS V14.00,2013-05-28 21:09:00,
2013-05-28 16:19:00,71.8,68.0,29.81,SW,215,8.1,16.1,88,0.00,, +RA,0.08,VWS V14.00,2013-05-28 21:19:00,
2013-05-28 16:29:00,71.8,68.0,29.81,SSW,197,7.2,10.7,88,0.00,, +RA,0.08,VWS V14.00,2013-05-28 21:29:00,
2013-05-28 16:39:00,71.8,68.0,29.81,SSW,211,5.4,15.2,88,0.00,,SCT100,0.08,VWS V14.00,2013-05-28 21:39:00,
2013-05-28 16:50:00,71.8,68.0,29.81,South,176,5.4,16.6,88,0.00,,SCT080,0.08,VWS V14.00,2013-05-28 21:50:00,
2013-05-28 17:00:00,71.8,68.0,29.81,SW,225,16.1,16.6,88,0.00,,BKN045,0.08,VWS V14.00,2013-05-28 22:00:00,
2013-05-28 17:09:00,71.8,68.0,29.81,WSW,247,10.7,16.1,88,0.00,,BKN045,0.08,VWS V14.00,2013-05-28 22:09:00,
2013-05-28 17:19:00,71.8,68.0,29.81,SW,233,9.8,15.2,88,0.00,,BKN045,0.08,VWS V14.00,2013-05-28 22:19:00,
2013-05-28 17:30:00,71.8,68.0,29.81,SW,226,16.6,18.3,88,0.00,,OVC026,0.08,VWS V14.00,2013-05-28 22:30:00,
2013-05-28 17:39:00,71.8,68.0,29.81,SW,230,5.4,17.4,88,0.00,,OVC026,0.08,VWS V14.00,2013-05-28 22:39:00,
2013-05-28 17:49:00,71.8,68.0,29.81,SSW,207,8.1,17.4,88,0.00,,OVC024,0.08,VWS V14.00,2013-05-28 22:49:00,
2013-05-28 17:59:00,71.8,68.0,29.81,South,186,12.5,16.1,88,0.00,,BKN025,0.08,VWS V14.00,2013-05-28 22:59:00,
2013-05-28 18:09:00,71.8,68.0,29.81,SE,146,5.4,20.1,88,0.00,,BKN025,0.08,VWS V14.00,2013-05-28 23:09:00,
2013-05-28 18:19:00,71.8,68.0,29.78,South,183,4.5,10.7,88,0.00,,BKN025,0.08,VWS V14.00,2013-05-28 23:19:00,
2013-05-28 18:29:00,71.8,68.0,29.81,South,174,5.4,12.5,88,0.00,,BKN025,0.08,VWS V14.00,2013-05-28 23:29:00,
2013-05-28 18:39:00,71.8,68.0,29.81,SW,232,0.0,12.5,88,0.00,,BKN035,0.08,VWS V14.00,2013-05-28 23:39:00,
2013-05-28 18:49:00,71.8,68.0,29.81,SSE,167,9.8,16.1,88,0.00,,OVC035,0.08,VWS V14.00,2013-05-28 23:49:00,
2013-05-28 18:59:00,71.8,68.0,29.81,South,173,4.5,12.5,88,0.00,,OVC039,0.08,VWS V14.00,2013-05-28 23:59:00,
2013-05-28 19:09:00,71.8,68.0,29.81,SW,217,7.2,14.3,88,0.00,,OVC039,0.08,VWS V14.00,2013-05-29 00:09:00,
2013-05-28 19:19:00,71.8,68.0,29.78,SSW,209,6.3,12.5,88,0.00,,OVC039,0.08,VWS V14.00,2013-05-29 00:19:00,
2013-05-28 19:29:00,71.8,68.0,29.78,WSW,237,5.4,13.4,88,0.00,,OVC035,0.08,VWS V14.00,2013-05-29 00:29:00,
2013-05-28 19:39:00,71.8,68.0,29.78,SW,233,5.4,6.3,88,0.00,,OVC035,0.08,VWS V14.00,2013-05-29 00:39:00,
2013-05-28 19:49:00,71.8,68.0,29.78,SW,234,7.2,9.8,88,0.00,,OVC035,0.08,VWS V14.00,2013-05-29 00:49:00,
2013-05-28 19:59:00,70.2,67.7,29.84,WSW,254,16.6,34.0,92,2.28,,OVC035,0.35,VWS V14.00,2013-05-29 00:59:00,
2013-05-28 20:09:00,68.2,66.1,29.84,SSW,206,10.7,33.6,93,0.83,,BKN085,0.47,VWS V14.00,2013-05-29 01:09:00,
2013-05-28 20:19:00,68.2,66.1,29.84,South,174,10.7,21.0,93,0.83,,BKN085,0.47,VWS V14.00,2013-05-29 01:19:00,
2013-05-28 20:28:00,68.2,66.1,29.84,SSW,208,10.7,23.7,93,0.83,,BKN085,0.47,VWS V14.00,2013-05-29 01:28:00,
2013-05-28 20:38:00,68.2,66.1,29.84,WNW,283,5.4,21.0,93,0.83,,SCT110,0.47,VWS V14.00,2013-05-29 01:38:00,
2013-05-28 20:50:00,68.2,66.1,29.78,SSE,151,6.3,13.4,93,0.12,,SCT110,0.51,VWS V14.00,2013-05-29 01:50:00,
2013-05-28 21:00:00,68.2,66.7,29.75,East,87,6.3,10.7,95,0.12,,SCT110,0.51,VWS V14.00,2013-05-29 02:00:00,
2013-05-28 21:10:00,68.2,66.7,29.75,WSW,244,12.5,16.6,95,0.12,,-RA,0.51,VWS V14.00,2013-05-29 02:10:00,
2013-05-28 21:20:00,68.2,66.7,29.81,WSW,253,11.6,24.6,95,0.12,,-RA,0.51,VWS V14.00,2013-05-29 02:20:00,
2013-05-28 21:29:00,68.2,66.7,29.81,WSW,238,10.7,17.4,95,0.12,,-RA,0.51,VWS V14.00,2013-05-29 02:29:00,
2013-05-28 21:39:00,68.2,66.7,29.81,West,267,7.2,15.2,95,0.12,,SCT110,0.51,VWS V14.00,2013-05-29 02:39:00,
2013-05-28 21:49:00,68.2,66.7,29.84,WSW,241,5.4,8.1,95,0.12,,CLR,0.51,VWS V14.00,2013-05-29 02:49:00,
2013-05-28 21:59:00,68.2,66.7,29.84,SW,221,6.3,7.2,95,0.12,,CLR,0.51,VWS V14.00,2013-05-29 02:59:00,
2013-05-28 22:09:00,68.2,66.7,29.84,WSW,239,8.1,9.8,95,0.12,,CLR,0.51,VWS V14.00,2013-05-29 03:09:00,
2013-05-28 22:19:00,68.2,66.7,29.87,WSW,237,7.2,12.5,95,0.12,,CLR,0.51,VWS V14.00,2013-05-29 03:19:00,
2013-05-28 22:29:00,68.2,66.7,29.87,SSW,211,8.1,13.4,95,0.12,,CLR,0.51,VWS V14.00,2013-05-29 03:29:00,
2013-05-28 22:39:00,68.2,66.7,29.87,SW,222,7.2,12.5,95,0.12,,CLR,0.51,VWS V14.00,2013-05-29 03:39:00,
2013-05-28 22:49:00,68.2,66.7,29.87,SW,224,8.1,11.6,95,0.12,,SCT036,0.51,VWS V14.00,2013-05-29 03:49:00,
2013-05-28 22:59:00,68.2,66.7,29.87,SSW,203,9.8,11.6,95,0.00,,OVC043,0.51,VWS V14.00,2013-05-29 03:59:00,
2013-05-28 23:09:00,68.2,66.7,29.87,SW,230,6.3,10.7,95,0.00,,OVC043,0.51,VWS V14.00,2013-05-29 04:09:00,
2013-05-28 23:19:00,68.2,66.7,29.87,SW,223,7.2,8.1,95,0.00,,OVC043,0.51,VWS V14.00,2013-05-29 04:19:00,
2013-05-28 23:29:00,68.2,66.7,29.90,SW,231,7.2,8.1,95,0.00,,OVC043,0.51,VWS V14.00,2013-05-29 04:29:00,
2013-05-28 23:39:00,68.2,66.7,29.90,SSW,202,0.0,7.2,95,0.00,,OVC050,0.51,VWS V14.00,2013-05-29 04:39:00,
2013-05-28 23:50:00,68.2,66.7,29.87,SSW,203,6.3,10.7,95,0.00,,BKN034,0.51,VWS V14.00,2013-05-29 04:50:00,